Location: Pic du Midi - T1M
(42.9366°N, 0.1426°E)
Time: 20:44:46
(UTC+01:00)

DUCHIFAT 1 - Visible Passes

Search period start: 19 September 2021 00:00
Search period end: 29 September 2021 00:00
Orbit: 585 x 601 km, 98.0° (Epoch: 19 September)

Date Brightness Start Highest point End Pass type
(mag) Time Alt. Az. Time Alt. Az. Time Alt. Az.
19 Sep ? 03:00:24 10° NNE 03:00:38 12° NNE 03:00:38 12° NNE visible
20 Sep ? 03:09:25 10° N 03:09:39 11° N 03:09:39 11° N visible
21 Sep ? 03:18:28 10° N 03:18:41 11° N 03:18:41 11° N visible
22 Sep ? 03:27:33 10° N 03:27:42 11° N 03:27:42 11° N visible
23 Sep ? 03:36:40 10° N 03:36:43 10° N 03:36:43 10° N visible
